Regional Weather Roundup
Issued by NWS Kansas City/Pleasant Hill, MO

Home | Current Version | Previous Version | Graphics & Text | Print | Product List | Glossary Off
Versions: 1 2 3 4 5 6 7 8 9 10 11 12 13 14 15 16 17 18 19 20 21 22 23 24 25 26 27 28 29 30 31 32 33 34 35 36 37 38 39 40 41 42 43 44 45 46 47 48 49 50

000
ASUS43 KEAX 180810
RWREAX

WEATHER ROUNDUP FOR EASTERN KANSAS AND NORTHWEST MISSOURI
NATIONAL WEATHER SERVICE KANSAS CITY/PLEASANT HILL MO
300 AM CDT THU SEP 18 2014

KSZ040-057-103>105-MOZ028-029-037-043-180900-
...KANSAS CITY METROPOLITAN AREA...

CITY           SKY/WX    TMP DP  RH WIND       PRES   REMARKS
K.C. INTL      CLOUDY    62  61  96 E13       29.95F
K.C. DOWNTOWN  CLOUDY    64  62  93 E8        29.94F FOG
LEES SUMMIT    CLOUDY    63  61  93 E9        29.96F FOG
OLATHE - IXD   CLOUDY    64  64 100 E8        29.96R
OLATHE - OJC   CLOUDY    63  63 100 SE9       29.96R
LAWRENCE       CLOUDY    64  63  96 E10       29.95R FOG

$$

MOZ001>008-011>017-020>025-030>033-038>040-044>046-053-054-180900-
...NORTHERN AND CENTRAL MISSOURI...

CITY           SKY/WX    TMP DP  RH WIND       PRES   REMARKS
ST. JOSEPH     MOCLDY    64  63  96 E7        29.96F
MOSBY          CLOUDY    61  61 100 E5        29.96F
WHITEMAN AFB   CLOUDY    63  61  94 SE7       29.96R FOG
CLINTON        CLOUDY    66  64  94 E5        29.98R FOG
SEDALIA        FOG       63  61  93 E3        29.98R VSB 1/2
WARSAW         NOT AVBL
MARSHALL       CLOUDY    63  63 100 SE6       29.99R FOG
CHILLICOTHE      N/A     59  58  96 E5        29.99F
MOBERLY        FOG       59  55  88 E8        29.99F VSB 1/2
KIRKSVILLE     FOG       56  55  97 E5        30.01S VSB 1/4

$$

MOZ041-047>049-056>058-063>065-088>090-097-180900-
...EASTERN AND SOUTHERN MISSOURI...

CITY           SKY/WX    TMP DP  RH WIND       PRES   REMARKS
ST. LOUIS INTL CLOUDY    62  56  80 E8        29.99F
SPIRIT OF STL  CLOUDY    60  57  89 E6        29.96F
COLUMBIA         N/A    N/A N/A N/A MISG        N/A
JEFFERSON CITY CLOUDY    62  61  96 E7        29.97S FOG
MEXICO         FOG      N/A N/A N/A E3        29.98F VSB 1/4
HANNIBAL       FOG       54  52  94 NE6       30.00F VSB 1/2
ROLLA          FOG       60  59  96 E6        29.96S VSB 1/2
LEBANON        CLOUDY    64  61  88 E5        29.98R
OSAGE BEACH    CLOUDY    64  61  88 CALM      29.96R
SPRINGFIELD    CLOUDY    64  62  93 S7        29.95R
BRANSON        FOG       64  64 100 E5        29.96R VSB<1/4
JOPLIN         TSTM      64  59  83 W12       29.95F
WEST PLAINS    FOG       60  59  96 SE3       29.97S VSB 1/2

$$

IAZ060-094-KSZ022-034>040-054-083-096-NEZ052-066-093-180900-
...KANSAS...SOUTHEAST NEBRASKA AND IOWA...

CITY           SKY/WX    TMP DP  RH WIND       PRES   REMARKS
TOPEKA         CLOUDY    66  66 100 NE8       29.93F FOG
MANHATTAN      CLOUDY    67  65  93 SE6       29.92F THUNDER
EMPORIA        CLOUDY    68  65  90 E21G30    29.94R
CHANUTE        TSTM      67  64  90 E13G21    29.91F
WICHITA        MOCLDY    72  66  81 SE7       29.85S
OMAHA          CLEAR     63  58  83 SE9       29.97F
LINCOLN        PTCLDY    66  60  81 E8        29.97R
FALLS CITY     MOCLDY    62  62 100 E6        29.95S FOG
LAMONI         FOG       58  57  97 E3        30.00S VSB 1/4
DES MOINES     PTCLDY    58  55  90 E3        30.01F

$$




USA.gov is the U.S. government's official web portal to all federal, state and local government web resources and services.